Great Falls, MT

4:13 PM MDT on March 24, 2017 (GMT -0600)
Great Falls International

Weather History for KGTF - July, 2012

Change the Weather History Date:

Sunday, July 29, 2012

  Actual Average Record
Temperature  
Mean Temperature 74 °F 69 °F  
Max Temperature 93 °F 86 °F 102 °F (1934)
Min Temperature 54 °F 53 °F 45 °F (1971)
Degree Days  
Heating Degree Days 0 1  
Month to date heating degree days 4 48  
Since 1 June heating degree days 136 239  
Since 1 July heating degree days 4 48  
Cooling Degree Days 9 5  
Month to date cooling degree days 235 115  
Year to date cooling degree days 269 154  
Since 1 June cooling degree days 264 147  
Growing Degree Days 24 (Base 50)    
Moisture  
Dew Point 43 °F    
Average Humidity 37    
Maximum Humidity 57    
Minimum Humidity 16    
Precipitation  
Precipitation 0.00 in 0.04 in 0.24 in (1905)
Month to date precipitation 2.02 1.43  
Year to date precipitation 9.43 9.69  
Snow  
Snow 0.00 in 0.00 in 0.00 in (2002)
Month to date snowfall 0.0 0.0  
Since 1 June snowfall 0.0 0.3  
Since 1 July snowfall 0.0 0.0  
Snow Depth 0.00 in    
Sea Level Pressure  
Sea Level Pressure 29.98 in    
Wind  
Wind Speed 7 mph (NNE)    
Max Wind Speed 16 mph    
Max Gust Speed 20 mph    
Visibility 10 miles    
Events      
T = Trace of Precipitation, MM = Missing Value Source: NWS Daily Summary

Daily Weather History Graph

Daily Weather History Graph

Search for Another Location

Airport or City:

Trip Planner

Search our weather history database for the weather conditions in past years. The results will help you decide how hot, cold, wet, or windy it might be!

Date:

Astronomy

Jul. 29, 2012 Rise Set
Actual Time 6:00 AM MDT 9:02 PM MDT
Civil Twilight 5:23 AM MDT 9:38 PM MDT
Nautical Twilight 4:36 AM MDT 10:25 PM MDT
Astronomical Twilight 3:39 AM MDT 11:22 PM MDT
Moon 6:17 PM MDT (7/29) 2:13 AM MDT (7/29)
Length of Visible Light 16h 14m
Length of Day
15h 02m
Waxing Gibbous, 85% of the Moon is Illuminated
Jul 29
Waxing Gibbous
Aug 1
Full
Aug 9
Last Quarter
Aug 17
New
Aug 24
First Quarter

Hourly Weather History & Observations

Time (MDT) Temp. Dew Point Humidity Pressure Visibility Wind Dir Wind Speed Gust Speed Precip Events Conditions
12:53 AM 64.9 °F 45.0 °F 48% 29.96 in 10.0 mi South 3.5 mph - N/A   Clear
1:53 AM 70.0 °F 45.0 °F 41% 29.94 in 10.0 mi South 6.9 mph - N/A   Clear
2:53 AM 63.0 °F 45.0 °F 52% 29.95 in 10.0 mi WNW 4.6 mph - N/A   Clear
3:53 AM 62.1 °F 43.0 °F 50% 29.96 in 10.0 mi WNW 6.9 mph - N/A   Clear
4:53 AM 60.1 °F 43.0 °F 53% 29.96 in 10.0 mi NW 6.9 mph - N/A   Clear
5:53 AM 57.9 °F 42.1 °F 56% 30.01 in 10.0 mi WNW 5.8 mph - N/A   Clear
6:53 AM 59.0 °F 43.0 °F 55% 30.04 in 10.0 mi West 8.1 mph - N/A   Clear
7:53 AM 64.0 °F 44.1 °F 48% 30.05 in 10.0 mi NW 10.4 mph - N/A   Clear
8:53 AM 66.9 °F 48.0 °F 51% 30.05 in 10.0 mi NW 4.6 mph - N/A   Clear
9:53 AM 71.6 °F 48.2 °F 43% 30.13 in 10.0 mi NNW 4.6 mph - N/A   Clear
10:53 AM 77.0 °F 48.0 °F 36% 30.03 in 10.0 mi NE 4.6 mph - N/A   Clear
11:53 AM 81.0 °F 46.0 °F 29% 30.01 in 10.0 mi Calm Calm - N/A   Clear
12:53 PM 82.9 °F 44.1 °F 25% 30.01 in 10.0 mi East 4.6 mph - N/A   Clear
1:53 PM 84.9 °F 45.0 °F 25% 29.98 in 10.0 mi Variable 3.5 mph - N/A   Clear
2:53 PM 89.1 °F 44.1 °F 21% 29.97 in 10.0 mi North 8.1 mph - N/A   Clear
3:53 PM 89.1 °F 39.9 °F 18% 29.95 in 10.0 mi ESE 5.8 mph - N/A   Clear
4:53 PM 91.0 °F 39.0 °F 16% 29.92 in 10.0 mi Variable 4.6 mph - N/A   Clear
5:53 PM 91.0 °F 39.9 °F 17% 29.92 in 10.0 mi ENE 9.2 mph - N/A   Clear
6:53 PM 90.0 °F 39.9 °F 17% 29.92 in 10.0 mi ENE 8.1 mph - N/A   Clear
7:53 PM 84.0 °F 39.9 °F 21% 29.93 in 10.0 mi ENE 13.8 mph - N/A   Clear
8:53 PM 82.0 °F 39.9 °F 22% 29.94 in 10.0 mi ENE 12.7 mph - N/A   Clear
9:53 PM 78.1 °F 39.9 °F 25% 29.95 in 10.0 mi ENE 10.4 mph - N/A   Clear
10:53 PM 72.0 °F 39.9 °F 31% 29.95 in 10.0 mi ESE 12.7 mph - N/A   Clear
11:53 PM 73.0 °F 39.9 °F 30% 29.94 in 10.0 mi ESE 11.5 mph - N/A   Clear